Tracking 30970 objects as of 3-Jul-2025
HD Live streaming from Space Station
objects crossing your sky now

STARLINK-32241

Track STARLINK-32241 now!
10-day predictions
STARLINK-32241 is classified as:


NORAD ID: 60437
Int'l Code: 2024-144N
Perigee: 481.7 km
Apogee: 483.1 km
Inclination: 53.2 °
Period: 94.1 minutes
Semi major axis: 6853 km
RCS: Unknown
Launch date: August 12, 2024
Source: United States (US)
Launch site: AIR FORCE EASTERN TEST RANGE (AFETR)
Your satellite tracking list
STARLINK-1243
Track 1 satellite(s)




NASA's NSSDC Master Catalog

Two Line Element Set (TLE):
1 60437U 24144N   25183.61928640 -.00000006  00000-0  11933-4 0  9998
2 60437  53.1586 298.5887 0001013  96.3031 263.8085 15.30191818 51021
Source of the keplerian elements: AFSPC